{"data":{"norad_id":61218,"intl_designator":"2024-171U","name":"STARLINK-32423","alt_names":[],"object_type":"PAYLOAD","status":"ACTIVE","operator":null,"country":"US","launch_date":"2024-09-20","launch_site_code":"AFWTR","launch_vehicle":null,"mission":null,"orbit_class":"UNKNOWN","rcs_meters":null,"size_class":null,"mass_kg":null,"dimensions":null,"purposes":["comms"],"wikipedia_slug":null,"has_3d_model":false,"image_url":null,"decayed_at":null,"tle_current":{"epoch":"2026-05-24T16:26:44.725632Z","epoch_age_seconds":96197,"freshness":"FRESH","line1":"1 61218U 24171U   26144.68523988 -.00000168  00000+0  64649-5 0  9998","line2":"2 61218  53.1607 329.4600 0001154  99.8177 260.2954 15.30191761 94913","mean_motion":15.30191761,"eccentricity":0.0001154,"inclination_deg":53.1607,"raan_deg":329.46,"arg_perigee_deg":99.8177,"mean_anomaly_deg":260.2954,"bstar":6.4649e-6,"rev_number":9491,"period_min":94.105852397149,"perigee_km":474.44879003093,"apogee_km":476.0305493663,"semimajor_km":6853.3766696986,"source":"CELESTRAK","updated_at":"2026-05-25T13:38:19.362802Z"}}}